Location: Liberec
(50.7830°N, 15.0500°E)
Time: 18:37:46
(UTC+01:00)

ISS - Visible Passes

Search period start: 14 March 2026 00:00
Search period end: 24 March 2026 00:00
Orbit: 415 x 426 km, 51.6° (Epoch: 13 March)

Date Brightness Start Highest point End Pass type
(mag) Time Alt. Az. Time Alt. Az. Time Alt. Az.
14 Mar -2.8 19:00:15 10° SSW 19:03:19 32° SSE 19:05:24 17° E visible
14 Mar -2.0 20:36:33 10° WSW 20:38:25 30° W 20:38:25 30° W visible
15 Mar -3.9 19:49:25 10° WSW 19:52:49 77° SSE 19:53:27 55° E visible
15 Mar -0.4 21:26:19 10° W 21:26:26 11° W 21:26:26 11° W visible
16 Mar -3.6 19:02:19 10° WSW 19:05:41 61° SSE 19:08:22 15° E visible
16 Mar -2.3 20:39:07 10° W 20:41:21 37° W 20:41:21 37° W visible
17 Mar -3.7 19:51:54 10° W 19:55:19 79° N 19:56:10 47° ENE visible
17 Mar -0.5 21:28:50 10° WNW 21:29:10 12° WNW 21:29:10 12° WNW visible
18 Mar -3.7 19:04:40 10° WSW 19:08:05 88° NNW 19:10:56 14° ENE visible
18 Mar -2.4 20:41:36 10° W 20:43:54 40° WNW 20:43:54 40° WNW visible
19 Mar -3.7 19:54:21 10° W 19:57:46 76° N 19:58:36 47° ENE visible
19 Mar -0.5 21:31:15 10° W 21:31:35 12° W 21:31:35 12° W visible
20 Mar -3.6 19:07:04 10° W 19:10:29 75° N 19:13:16 14° E visible
20 Mar -2.4 20:43:58 10° WNW 20:46:14 38° W 20:46:14 38° W visible
21 Mar -3.8 19:56:41 10° WNW 20:00:05 86° SSW 20:00:52 51° ESE visible
21 Mar -0.5 21:33:42 10° W 21:33:51 11° W 21:33:51 11° W visible
22 Mar -3.7 19:09:22 10° W 19:12:47 82° N 19:15:29 15° E visible
22 Mar -2.1 20:46:17 10° W 20:48:27 30° WSW 20:48:27 30° WSW visible
23 Mar -3.4 19:58:54 10° W 20:02:14 53° SSW 20:03:04 40° SSE visible
